Campo, CA

12:01 PM PST on February 08, 2016 (GMT -0800)
Campo

Weather History for KCZZ - October, 2010

Change the Weather History Date:

Thursday, October 21, 2010

  Actual Average Record
Temperature  
Mean Temperature 54 °F 60 °F  
Max Temperature 59 °F 78 °F 95 °F (2003)
Min Temperature 48 °F 41 °F 32 °F (1950)
Degree Days  
Heating Degree Days 11 6  
Month to date heating degree days 119 90  
Since 1 July heating degree days 227 140  
Cooling Degree Days 0 0  
Month to date cooling degree days 38 27  
Year to date cooling degree days 655 838  
Growing Degree Days 2 (Base 50)    
Moisture  
Dew Point 51 °F    
Average Humidity 90    
Maximum Humidity 100    
Minimum Humidity 80    
Precipitation  
Precipitation 0.01 in 0.03 in 0.91 in (2015)
Month to date precipitation 2.91 0.51  
Year to date precipitation 15.68 12.02  
Since 1 July precipitation 3.09  
Snow  
Snow 0.00 in - - ()
Month to date snowfall 0.0  
Year to date snowfall 1.0  
Snow Depth 0.00 in    
Sea Level Pressure  
Sea Level Pressure 29.99 in    
Wind  
Wind Speed 6 mph (West)    
Max Wind Speed 15 mph    
Max Gust Speed 18 mph    
T = Trace of Precipitation, MM = Missing Value Source: NWS Daily Summary

Daily Weather History Graph

Daily Weather History Graph

Search for Another Location

Airport or City:

Trip Planner

Search our weather history database for the weather conditions in past years. The results will help you decide how hot, cold, wet, or windy it might be!

Date:

Astronomy

Oct. 21, 2010 Rise Set
Actual Time 6:54 AM PDT 6:06 PM PDT
Civil Twilight 6:29 AM PDT 6:30 PM PDT
Nautical Twilight 6:00 AM PDT 6:59 PM PDT
Astronomical Twilight 5:32 AM PDT 7:28 PM PDT
Moon 5:09 PM PDT (10/21) 5:39 AM PDT (10/21)
Length of Visible Light 12h 01m
Length of Day
11h 11m
Waxing Gibbous, 98% of the Moon is Illuminated
Oct 21
Waxing Gibbous
Oct 22
Full
Oct 30
Last Quarter
Nov 5
New
Nov 13
First Quarter

Hourly Weather History & Observations

Time (PDT) Temp. Dew Point Humidity Pressure Visibility Wind Dir Wind Speed Gust Speed Precip Events Conditions
12:52 AM 48.0 °F 46.9 °F 96% 29.99 in - Calm Calm - N/A   Unknown
1:52 AM 51.1 °F 50.0 °F 96% 29.99 in - SW 5.8 mph - N/A   Unknown
2:52 AM 51.1 °F 50.0 °F 96% 29.98 in - NW 4.6 mph - N/A   Unknown
3:52 AM 51.1 °F 48.9 °F 92% 29.97 in - WNW 3.5 mph - N/A   Unknown
4:52 AM 51.1 °F 50.0 °F 96% 29.97 in - SW 4.6 mph - N/A   Unknown
5:52 AM 51.1 °F 50.0 °F 96% 29.99 in - West 4.6 mph - N/A   Unknown
6:52 AM 52.0 °F 48.9 °F 89% 30.00 in - NW 3.5 mph - N/A   Unknown
7:52 AM 51.1 °F 50.0 °F 96% 30.01 in - SSW 6.9 mph - N/A   Unknown
8:52 AM 52.0 °F 51.1 °F 97% 30.03 in - SW 5.8 mph - 0.01 in   Unknown
9:52 AM 54.0 °F 51.1 °F 90% 30.02 in - South 4.6 mph - N/A   Unknown
10:52 AM 55.0 °F 50.0 °F 83% 30.02 in - South 6.9 mph - N/A   Unknown
11:52 AM 57.0 °F 52.0 °F 83% 30.02 in - SW 10.4 mph - N/A   Unknown
12:52 PM 57.0 °F 51.1 °F 81% 30.01 in - SW 10.4 mph - N/A   Unknown
1:52 PM 57.0 °F 51.1 °F 81% 29.99 in - West 9.2 mph - N/A   Unknown
2:52 PM 57.0 °F 51.1 °F 81% 29.98 in - WNW 10.4 mph - N/A   Unknown
3:52 PM 57.9 °F 51.1 °F 78% 29.97 in - WNW 6.9 mph - N/A   Unknown
4:52 PM 57.9 °F 51.1 °F 78% 29.97 in - West 6.9 mph - N/A   Unknown
5:52 PM 55.9 °F 52.0 °F 87% 29.96 in - WNW 5.8 mph - N/A   Unknown
6:52 PM 55.0 °F 51.1 °F 86% 29.97 in - WNW 4.6 mph - N/A   Unknown
7:52 PM 55.0 °F 51.1 °F 86% 29.98 in - West 5.8 mph - N/A   Unknown
8:52 PM 55.0 °F 51.1 °F 86% 29.99 in - NW 4.6 mph - N/A   Unknown
9:52 PM 54.0 °F 52.0 °F 93% 30.00 in - WNW 5.8 mph - N/A   Unknown
10:52 PM 54.0 °F 52.0 °F 93% 30.00 in - West 6.9 mph - N/A   Unknown
11:52 PM 53.1 °F 51.1 °F 93% 29.99 in - Calm Calm - N/A   Unknown